[[{"header":{"parameterUnit":"m.s-1","parameterCategory":1,"la1":30.2991,"la2":30.254,"lo1":-89.0895,"lo2":-89.0444,"dy":0.0017,"dx":0.0017,"nx":28,"ny":28,"refTime":"2025-05-20T09:00:00:Z","depth":0,"parameterNumber":2,"parameterNumberName":"U-component_of_WINDS"},"data":[0,0,0,0,0,0,0,0,0,0,0,0,0,0,0,0,0,0,0,0,0,0,0,0,0,0,0,0,0,0,0,0,0,0,0,0,0,0,0,0,0,0,0,0,0,0,0,0,0,0,0,0,0,0,0,0,0,0,-2.0729,-2.0729,0,-2.0747,-2.0747,-2.0747,-2.0732,-2.0731,-2.0731,-2.073,-2.0749,-2.075,-2.0751,0,0,0,0,0,0,0,0,0,0,0,0,0,-2.0681,-2.0682,-2.0729,-2.0729,-2.0729,-2.0747,-2.0747,-2.0747,-2.0732,-2.0731,-2.0731,-2.073,-2.0749,-2.075,-2.0752,0,0,0,0,0,0,0,0,0,0,0,0,0,-2.0701,-2.0682,-2.0729,-2.0724,-2.0723,-2.0747,-2.0747,-2.0747,-2.0732,-2.0731,-2.073,-2.073,-2.0748,-2.075,-2.0752,-2.0781,0,0,-2.0757,-2.0757,0,0,0,0,0,0,0,0,-2.07,-2.0702,-2.0724,-2.0724,-2.0724,-2.0736,-2.0737,-2.0759,-2.0733,-2.0729,-2.073,-2.0729,-2.0746,-2.0748,-2.0753,-2.0782,-2.0783,-2.0757,-2.0758,-2.0759,-2.0759,0,0,0,0,0,0,0,-2.0698,-2.0702,-2.0736,-2.0724,-2.0724,-2.0721,-2.0722,-2.0741,-2.0743,-2.0729,-2.0728,-2.073,-2.0745,-2.0752,-2.0753,-2.0783,-2.0757,-2.0758,-2.0759,-2.076,-2.0838,-2.0839,0,0,0,0,0,0,-2.0697,-2.0701,-2.0735,-2.0736,-2.0709,-2.0722,-2.0724,-2.0733,-2.0742,-2.0743,-2.0731,-2.073,-2.0749,-2.0752,-2.0754,-2.0789,-2.0759,-2.076,-2.0761,-2.0836,-2.0838,-2.0839,0,0,0,0,0,0,-2.0696,-2.0701,-2.0735,-2.0718,-2.0722,-2.0724,-2.0734,-2.0734,-2.074,-2.0744,-2.0744,-2.0737,-2.0749,-2.0752,-2.0775,-2.079,-2.0761,-2.0762,-2.0835,-2.0837,-2.0838,-2.086,0,0,0,0,0,0,-2.0695,-2.07,-2.0711,-2.0719,-2.0723,-2.0755,-2.0735,-2.0735,-2.0743,-2.0741,-2.075,-2.075,-2.0748,-2.0772,-2.0776,-2.0792,-2.0764,-2.0834,-2.0836,-2.0838,-2.0858,-2.0862,-2.0866,0,0,0,0,0,-2.0693,-2.0717,-2.0712,-2.0716,-2.0737,-2.0756,-2.0758,-2.0755,-2.0744,-2.0756,-2.0758,-2.075,-2.0787,-2.0775,-2.0779,-2.0795,-2.0833,-2.0835,-2.0838,-2.0856,-2.0861,-2.0866,0,0,0,0,0,0,-2.0711,-2.0718,-2.0712,-2.0739,-2.0747,-2.0753,-2.0767,-2.0761,-2.0772,-2.077,-2.0766,-2.0768,-2.0792,-2.0796,-2.0782,-2.0824,-2.0808,-2.0812,-2.0821,-2.0826,-2.083,-2.0828,-2.0765,0,0,0,0,0,-2.0718,-2.0733,-2.0737,-2.076,-2.0765,-2.0765,-2.0773,-2.077,-2.0778,-2.0782,-2.0786,-2.0794,-2.0808,-2.0817,-2.083,-2.0858,-2.086,-2.0872,-2.0876,-2.0879,-2.0882,-2.0897,-2.0903,-2.0847,-2.0847,-2.0847,0,0,-2.0733,-2.0738,-2.0747,-2.0764,-2.077,-2.0785,-2.0768,-2.0785,-2.0796,-2.0784,-2.0806,-2.081,-2.0819,-2.0845,-2.0856,-2.0848,-2.0898,-2.0882,-2.0884,-2.0886,-2.09,-2.0906,-2.091,-2.0848,-2.0848,-2.0848,0,0,-2.0767,-2.0773,-2.0792,-2.0799,-2.0808,-2.0808,-2.0813,-2.082,-2.0822,-2.0844,-2.0835,-2.0849,-2.0873,-2.088,-2.0886,-2.0924,-2.0917,-2.0928,-2.0948,-2.0964,-2.0968,-2.0972,-2.0986,-2.0991,-2.0931,-2.0931,-2.0931,0,-2.0785,-2.0807,-2.0803,-2.0821,-2.0829,-2.0819,-2.0839,-2.0845,-2.0858,-2.0863,-2.0854,-2.0884,-2.089,-2.0917,-2.0926,-2.0932,-2.0938,-2.0927,-2.0968,-2.0972,-2.0975,-2.0988,-2.0993,-2.0932,-2.0932,-2.0932,-2.0932,0,-2.0828,-2.0844,-2.0858,-2.0871,-2.088,-2.0899,-2.0899,-2.0908,-2.0905,-2.0906,-2.0929,-2.0935,-2.0949,-2.0955,-2.0952,-2.0983,-2.0977,-2.0968,-2.0952,-2.0982,-2.0994,-2.0999,-2.0934,-2.0934,-2.0933,-2.0933,0,0,-2.0874,-2.0885,-2.089,-2.0896,-2.0905,-2.0918,-2.0936,-2.095,-2.0958,-2.0968,-2.0983,-2.1004,-2.0995,-2.1003,-2.1,-2.1014,-2.1043,-2.1003,-2.1003,-2.101,-2.1078,-2.1085,-2.1091,-2.1039,-2.104,-2.104,-2.1077,0,-2.0909,-2.0941,-2.0939,-2.0969,-2.0983,-2.0974,-2.099,-2.0998,-2.1,-2.1013,-2.1015,-2.1029,-2.1017,-2.1021,-2.1034,-2.1037,-2.1057,-2.1034,-2.1053,-2.1054,-2.1051,-2.1097,-2.1104,-2.1139,-2.1082,-2.1082,-2.1083,0,-2.0955,-2.0966,-2.0997,-2.1005,-2.1011,-2.1025,-2.1038,-2.105,-2.1058,-2.1059,-2.1067,-2.1063,-2.1081,-2.1065,-2.1091,-2.1076,-2.1083,-2.1086,-2.1087,-2.1089,-2.107,-2.11,-2.1149,-2.1155,-2.109,-2.109,-2.1089,0,-2.0986,-2.1008,-2.103,-2.1035,-2.1045,-2.1055,-2.1059,-2.1067,-2.1075,-2.1086,-2.1092,-2.1105,-2.1112,-2.1122,-2.1121,-2.1109,-2.1148,-2.1131,-2.1149,-2.1149,-2.1158,-2.1157,-2.1209,-2.1162,-2.1162,-2.1162,-2.1162,0,-2.1026,-2.1046,-2.1044,-2.1058,-2.108,-2.1077,-2.1099,-2.1102,-2.1109,-2.1123,-2.1116,-2.1129,-2.1127,-2.114,-2.1139,-2.1161,-2.1164,-2.1166,-2.1165,-2.1166,-2.1166,-2.1171,-2.1169,-2.1163,-2.1163,-2.1163,-2.1162,0,-2.1064,-2.1064,-2.1088,-2.1094,-2.1096,-2.1112,-2.1118,-2.1131,-2.1132,-2.115,-2.1154,-2.1156,-2.1172,-2.1172,-2.1189,-2.1189,-2.1216,-2.1212,-2.1213,-2.1212,-2.123,-2.1229,-2.1288,-2.1295,-2.1243,-2.1243,-2.1244,0,-2.109,-2.1105,-2.1113,-2.1122,-2.1127,-2.1141,-2.115,-2.1147,-2.1157,-2.1168,-2.1179,-2.1194,-2.1206,-2.1231,-2.1234,-2.1248,-2.1245,-2.1265,-2.1247,-2.1248,-2.1246,-2.1245,-2.1247,-2.1269,-2.1269,-2.127,-2.127,0,-2.1136,-2.1135,-2.1147,-2.116,-2.1171,-2.118,-2.119,-2.1197,-2.1196,-2.1207,-2.1222,-2.1232,-2.125,-2.1265,-2.1278,-2.1282,-2.1276,-2.1275,-2.128,-2.1282,-2.1282,-2.1282,-2.1223,-2.1274,-2.1274,-2.1273,-2.1273,-2.1273,-2.1169,-2.1182,-2.119,-2.1204,-2.1211,-2.1219,-2.1232,-2.1234,-2.1247,-2.1262,-2.126,-2.1277,-2.1286,-2.1302,-2.1308,-2.1322,-2.1315,-2.1322,-2.1324,-2.1326,-2.1328,-2.1279,-2.1324,-2.1324,-2.1324,-2.1324,-2.1324,0,-2.1214,-2.1219,-2.1232,-2.1245,-2.1256,-2.1249,-2.1259,-2.1269,-2.1285,-2.1293,-2.1304,-2.1323,-2.1337,-2.1341,-2.1355,-2.1366,-2.1363,-2.137,-2.1369,-2.137,-2.1333,-2.1328,-2.1371,-2.1371,-2.1371,-2.1371,-2.1371,-2.1371,-2.124,-2.1261,-2.1262,-2.1286,-2.1291,-2.1308,-2.1314,-2.1322,-2.1329,-2.1349,-2.1361,-2.1364,-2.1371,-2.1385,-2.1398,-2.1399,-2.1404,-2.1412,-2.1412,-2.1377,-2.1373,-2.1368,-2.1363,-2.1413,-2.1413,-2.1448,-2.1448,-2.1448]},{"header":{"parameterUnit":"m.s-1","parameterCategory":1,"la1":30.2991,"la2":30.254,"lo1":-89.0895,"lo2":-89.0444,"dy":0.0017,"dx":0.0017,"nx":28,"ny":28,"refTime":"2025-05-20T09:00:00:Z","depth":0,"parameterNumber":3,"parameterNumberName":"V-component_of_WINDS"},"data":[0,0,0,0,0,0,0,0,0,0,0,0,0,0,0,0,0,0,0,0,0,0,0,0,0,0,0,0,0,0,0,0,0,0,0,0,0,0,0,0,0,0,0,0,0,0,0,0,0,0,0,0,0,0,0,0,0,0,5.8764,5.8765,0,5.8863,5.8864,5.8865,5.8828,5.8826,5.8823,5.8821,5.8919,5.8923,5.8928,0,0,0,0,0,0,0,0,0,0,0,0,0,5.8541,5.8545,5.8764,5.8765,5.8767,5.8862,5.8864,5.8865,5.8828,5.8826,5.8823,5.882,5.8917,5.8922,5.8928,0,0,0,0,0,0,0,0,0,0,0,0,0,5.8638,5.8547,5.8764,5.876,5.8761,5.8862,5.8864,5.8865,5.8829,5.8826,5.8822,5.8819,5.8915,5.8922,5.8929,5.9039,0,0,5.895,5.8953,0,0,0,0,0,0,0,0,5.8633,5.8647,5.8759,5.876,5.8761,5.883,5.8821,5.8924,5.883,5.8803,5.8821,5.8817,5.8891,5.89,5.8926,5.9044,5.9048,5.8951,5.8955,5.8958,5.896,0,0,0,0,0,0,0,5.8626,5.8642,5.8803,5.8761,5.8762,5.8752,5.8762,5.884,5.8865,5.8805,5.8803,5.8815,5.8891,5.8919,5.8928,5.9049,5.8951,5.8957,5.8961,5.8964,5.9261,5.9265,0,0,0,0,0,0,5.862,5.8637,5.88,5.8806,5.8688,5.8759,5.877,5.8811,5.8864,5.8869,5.8818,5.8813,5.8909,5.892,5.8931,5.9063,5.8958,5.8965,5.8969,5.9258,5.9262,5.9266,0,0,0,0,0,0,5.8615,5.8634,5.8796,5.8721,5.8741,5.8766,5.8812,5.8815,5.8843,5.8873,5.8877,5.8842,5.8907,5.8921,5.9013,5.9066,5.8968,5.8974,5.9253,5.9259,5.9264,5.9328,0,0,0,0,0,0,5.8609,5.8633,5.8676,5.8722,5.8745,5.8877,5.8816,5.8819,5.8855,5.885,5.8897,5.8902,5.8905,5.9002,5.902,5.9073,5.898,5.9249,5.9256,5.9262,5.9321,5.9335,5.9346,0,0,0,0,0,5.8601,5.869,5.8679,5.8698,5.8799,5.888,5.8893,5.8896,5.886,5.8902,5.8922,5.89,5.9057,5.9012,5.9031,5.9088,5.9245,5.9254,5.9262,5.9315,5.9332,5.9346,0,0,0,0,0,0,5.8648,5.8695,5.8684,5.879,5.8832,5.8874,5.8928,5.8914,5.8966,5.8958,5.8959,5.897,5.9064,5.9085,5.9034,5.9197,5.9146,5.9158,5.9179,5.9196,5.9208,5.92,5.8985,0,0,0,0,0,5.8671,5.8734,5.8772,5.8862,5.8883,5.8902,5.8938,5.8937,5.8979,5.8996,5.9022,5.9063,5.9122,5.916,5.9216,5.9324,5.9333,5.9373,5.9385,5.9396,5.9406,5.9464,5.9481,5.9293,5.9293,5.9293,0,0,5.8719,5.8752,5.8792,5.8872,5.8904,5.8968,5.8917,5.8987,5.9034,5.9006,5.9094,5.9115,5.916,5.9261,5.9306,5.9281,5.946,5.9406,5.9414,5.9419,5.9474,5.9492,5.9507,5.9299,5.9298,5.9297,0,0,5.8838,5.8871,5.8949,5.8982,5.9031,5.9043,5.9062,5.9107,5.912,5.9208,5.9189,5.9244,5.9345,5.9378,5.9408,5.954,5.9521,5.9558,5.9624,5.968,5.9695,5.9708,5.9754,5.977,5.9569,5.9569,5.9569,0,5.8891,5.8987,5.899,5.9062,5.9097,5.9076,5.9155,5.9186,5.9251,5.9275,5.9247,5.9373,5.9402,5.9509,5.9541,5.9567,5.9587,5.9552,5.9693,5.9706,5.9718,5.9762,5.9779,5.9573,5.9572,5.9572,5.9572,0,5.9049,5.9116,5.9173,5.9237,5.9278,5.9353,5.9366,5.9408,5.9404,5.9418,5.9508,5.9543,5.9604,5.963,5.9626,5.9736,5.9719,5.9692,5.964,5.974,5.9781,5.9798,5.9579,5.9577,5.9576,5.9575,0,0,5.92,5.9265,5.9285,5.9314,5.9367,5.9418,5.9491,5.9553,5.9588,5.9633,5.9693,5.9779,5.9755,5.9789,5.9788,5.9838,5.9938,5.9804,5.9805,5.9827,6.006,6.0079,6.0099,5.9927,5.993,5.9933,6.0056,0,5.9322,5.9451,5.9456,5.9574,5.9635,5.9616,5.968,5.9718,5.9734,5.9787,5.9804,5.9865,5.9828,5.9848,5.9897,5.9916,5.9985,5.9907,5.9981,5.9984,5.9969,6.012,6.0141,6.0256,6.0072,6.0075,6.0077,0,5.9482,5.9533,5.9657,5.97,5.9726,5.9783,5.9839,5.9891,5.9934,5.9942,5.9981,5.9973,6.0046,5.9993,6.0093,6.004,6.0071,6.0085,6.0089,6.0095,6.0035,6.0129,6.0293,6.0309,6.0102,6.01,6.0098,0,5.9578,5.9677,5.9764,5.9789,5.9842,5.9883,5.9907,5.9947,5.9983,6.0032,6.0055,6.0112,6.0143,6.0186,6.0193,6.0154,6.0294,6.0241,6.0301,6.0301,6.033,6.0327,6.0499,6.0352,6.0352,6.0351,6.0351,0,5.9713,5.9789,5.9808,5.9861,5.9945,5.995,6.0033,6.0054,6.0089,6.0145,6.0133,6.0185,6.0192,6.0246,6.0252,6.0333,6.0348,6.0355,6.0355,6.0355,6.0354,6.0374,6.0366,6.0356,6.0355,6.0354,6.0353,0,5.9834,5.985,5.9943,5.9986,5.9998,6.0058,6.0095,6.0145,6.0159,6.023,6.0247,6.027,6.0332,6.0344,6.0418,6.0422,6.0519,6.0512,6.0505,6.0503,6.0561,6.0555,6.0751,6.0776,6.0614,6.0615,6.0617,0,5.9918,5.9976,6.0026,6.0063,6.0089,6.0149,6.0186,6.0193,6.0232,6.0285,6.0329,6.0391,6.044,6.0541,6.0563,6.062,6.0613,6.0678,6.0621,6.0619,6.0612,6.0608,6.0613,6.0688,6.069,6.0691,6.0692,0,6.0066,6.0071,6.0126,6.0184,6.0229,6.0274,6.0317,6.0348,6.036,6.0405,6.0469,6.0508,6.0584,6.0645,6.0701,6.0724,6.071,6.071,6.0727,6.0727,6.0719,6.0723,6.0533,6.0705,6.0704,6.0703,6.0702,6.0702,6.0171,6.0221,6.0264,6.0325,6.0358,6.0399,6.0448,6.0469,6.0523,6.0586,6.0587,6.0657,6.0698,6.0772,6.0799,6.0853,6.0832,6.0856,6.0862,6.0868,6.0872,6.0712,6.0863,6.0863,6.0862,6.0862,6.0862,0,6.0317,6.0343,6.04,6.0461,6.0509,6.0493,6.0539,6.058,6.0643,6.0682,6.0732,6.0805,6.0864,6.0891,6.0949,6.0987,6.0982,6.1002,6.0998,6.1004,6.0888,6.0868,6.1005,6.1005,6.1005,6.1005,6.1005,6.1005,6.0398,6.0483,6.0493,6.0593,6.0618,6.0688,6.0716,6.0753,6.0784,6.0867,6.0917,6.0934,6.0969,6.1029,6.1082,6.1088,6.1109,6.1132,6.1135,6.1027,6.1012,6.0998,6.0979,6.1137,6.1137,6.1246,6.1247,6.1248]}]]